Location: Ellingshausen
(50.5460°N, 10.4723°E)
Time: 12:16:21
(UTC+00:00)

Cosmos 676 Rocket - Pass Details

Date: 10 April 2026
Orbit: 750 x 779 km, 74.0° (Epoch: 19 May)

Event Time Altitude Azimuth Distance (km) Brightness Sun altitude
Rises 02:04:33 0° 324° (NW) 3,269 7.4 -21.5°
Reaches altitude 10° 02:07:40 10° 306° (NW) 2,332 6.4 -21.2°
Enters shadow 02:09:05 15° 292° (WNW) 2,026 5.9 -21.0°
